This demonstration page uses our WeatherBlox Daily Observations layout. Learn more.

38.89511, -77.03637

Hourly Observations for April 1, 2015

Temp ( °F °C ) Dew Point ( °F °C ) Humidity (%) Winds ( mph kmh ) Pressure ( in mb ) Visibility ( mi km ) Precip ( " mm )
12:52 am 00:52 Partly Cloudy 45 7 32 0 61 61 N 24 39 29.94 1014 10 16.09344 0 0
1:52 am 01:52 Partly Cloudy 43 6 30 -1 61 61 N 13 20 29.97 1015 10 16.09344 0 0
2:52 am 02:52 Mostly Clear 41 5 30 -1 66 66 N 7 11 29.97 1015 10 16.09344 0 0
3:52 am 03:52 Mostly Clear 41 5 30 -1 66 66 NNW 7 11 30 1016 10 16.09344 0 0
4:52 am 04:52 Mostly Clear 41 5 28 -2 61 61 NW 7 11 30 1016 10 16.09344 0 0
5:52 am 05:52 Mostly Clear 41 5 28 -2 61 61 NW 12 19 30.03 1017 10 16.09344 0 0
6:52 am 06:52 Mostly Clear 41 5 27 -3 57 57 NW 9 15 30.06 1018 10 16.09344 0 0
7:52 am 07:52 Mostly Sunny 43 6 27 -3 53 53 WNW 9 15 30.12 1020 10 16.09344 0 0
8:52 am 08:52 Sunny 46 8 27 -3 46 46 NW 13 20 30.15 1021 10 16.09344 0 0
9:52 am 09:52 Sunny 48 9 27 -3 43 43 NNW 9 15 30.18 1022 10 16.09344 0 0
10:52 am 10:52 Sunny 50 10 27 -3 40 40 N 13 20 30.18 1022 10 16.09344 0 0
11:52 am 11:52 Sunny 52 11 27 -3 38 38 N 9 15 30.18 1022 10 16.09344 0 0
12:52 pm 12:52 Sunny 55 13 27 -3 33 33 NW 7 11 30.18 1022 10 16.09344 0 0
1:52 pm 13:52 Mostly Sunny 57 14 27 -3 31 31 NNW 10 17 30.15 1021 10 16.09344 0 0
2:52 pm 14:52 Mostly Sunny 59 15 27 -3 29 29 NW 13 20 30.15 1021 10 16.09344 0 0
3:52 pm 15:52 Partly Cloudy 61 16 27 -3 27 27 NW 15 24 30.15 1021 10 16.09344 0 0
4:52 pm 16:52 Partly Cloudy 61 16 27 -3 27 27 NNW 16 26 30.15 1021 10 16.09344 0 0
5:52 pm 17:52 Mostly Sunny 61 16 27 -3 27 27 N 7 11 30.15 1021 10 16.09344 0 0
6:52 pm 18:52 Mostly Sunny 59 15 28 -2 31 31 N 7 11 30.18 1022 10 16.09344 0 0
7:52 pm 19:52 Mostly Cloudy with Light Rain 55 13 43 6 63 63 NNW 17 28 29.71 1006 10 16.09344 0 0
8:52 pm 20:52 Clear 55 13 30 -1 38 38 ESE 3 6 30.21 1023 10 16.09344 0 0
9:52 pm 21:52 Clear 52 11 34 1 50 50 S 5 7 30.24 1024 10 16.09344 0 0
10:52 pm 22:52 Clear 52 11 34 1 50 50 Calm 30.24 1024 10 16.09344 0 0
11:52 pm 23:52 Clear 50 10 30 -1 47 47 SSE 5 7 30.27 1025 10 16.09344 0 0

Powered by AerisWeather